Find NNS 30320-48

NORAD ID: 19071 Int'l Des: 1988-033 Owner: NAVAIR Country: US operational
LEORETROGRADE

Live Position

Loading 3D Globe...

About NNS 30320-48

Description loading...

Upcoming Passes

Passes for default location (London). Set your location on the main map for personalized predictions.

Altitude History

Loading altitude history...

Two-Line Element Set

1 19071U 88033B 26104.49182954 .00000060 00000-0 10395-3 0 9992
2 19071 90.3330 20.3914 0187311 185.2371 349.5121 13.27972347838947
Epoch: Apr 14, 2026 • Age: 16 hours

Current Status

Altitude 1109.3 km
Velocity 7.33 km/s
Sub-Earth Point 64.20°N, 59.12°W
Launch Date Apr 26, 1988
Age 37.9 years
Type other

Technical Details

Classification Payload
Mass 64.00 kg
Dry Mass 64.00 kg
Total Mass 64.00 kg
Length 0.30 m
Diameter 0.50 m
Span 30.00 m
Shape Oct Cyl + 4 Pan + Ant
Manufacturer GEEW
Bus Type Transit 5
Phase Status In Orbit
Owner/State NAVAIR/US

Most Searched